KT2UU-13 Weather Reports


time (UTC)temp
C
wind
direction
speed
KPH
gust
KPH
rain 1hr
cm
rain 24hr
cm
rain mn
cm
humidity
%
barometer
mb
20260505235900 22 88 0.0 0.0 0.00 0.00 0.00 50 1013.5
20260505235358 22 106 0.0 0.0 0.00 0.00 0.00 49 1013.4
20260505234855 22 106 0.0 0.0 0.00 0.00 0.00 48 1013.5
20260505234352 23 105 0.0 0.0 0.00 0.00 0.00 48 1013.6
20260505233849 23 105 0.0 0.0 0.00 0.00 0.00 48 1013.4
20260505233347 23 105 0.0 0.0 0.00 0.00 0.00 47 1013.6
20260505232844 24 105 0.0 0.0 0.00 0.00 0.00 46 1013.9
20260505232342 24 105 0.0 0.0 0.00 0.00 0.00 45 1013.8
20260505231838 24 105 0.0 0.0 0.00 0.00 0.00 44 1013.6
20260505231336 24 99 0.0 1.6 0.00 0.00 0.00 44 1013.6
20260505230834 24 99 0.0 3.2 0.00 0.00 0.00 44 1013.6
20260505230331 25 128 0.0 1.6 0.00 0.00 0.00 43 1013.7
20260505225827 25 107 0.0 0.0 0.00 0.00 0.00 43 1013.7
20260505225325 25 116 0.0 1.6 0.00 0.00 0.00 43 1013.6
20260505224820 25 54 0.0 0.0 0.00 0.00 0.00 42 1013.6
20260505224318 25 117 0.0 0.0 0.00 0.00 0.00 44 1013.7
20260505223815 23 106 0.0 0.0 0.00 0.00 0.00 49 1013.7
20260505223312 23 106 0.0 0.0 0.00 0.00 0.00 48 1013.8
20260505222807 23 352 0.0 0.0 0.00 0.00 0.00 47 1013.8
20260505222305 23 352 1.6 1.6 0.00 0.00 0.00 45 1013.6
20260505221801 24 352 0.0 0.0 0.00 0.00 0.00 46 1013.6
20260505221257 23 352 0.0 0.0 0.00 0.00 0.00 46 1013.6
20260505220754 24 352 0.0 0.0 0.00 0.00 0.00 45 1013.7
20260505220252 24 352 0.0 0.0 0.00 0.00 0.00 42 1013.8
20260505215750 24 352 0.0 0.0 0.00 0.00 0.00 43 1013.8
20260505215247 24 83 0.0 0.0 0.00 0.00 0.00 44 1013.8
20260505214745 24 8 0.0 1.6 0.00 0.00 0.00 44 1013.9
20260505214242 24 106 0.0 1.6 0.00 0.00 0.00 40 1014.1
20260505213739 24 139 0.0 0.0 0.00 0.00 0.00 43 1013.9
20260505213236 24 92 1.6 1.6 0.00 0.00 0.00 41 1014.0
20260505212732 24 92 0.0 1.6 0.00 0.00 0.00 41 1013.7
20260505212230 24 182 0.0 1.6 0.00 0.00 0.00 42 1013.5
20260505211727 24 121 0.0 0.0 0.00 0.00 0.00 42 1013.7
20260505211224 25 135 3.2 3.2 0.00 0.00 0.00 40 1013.6
20260505210720 24 115 0.0 1.6 0.00 0.00 0.00 40 1013.6
20260505210217 24 157 0.0 1.6 0.00 0.00 0.00 41 1013.7
20260505205715 25 107 0.0 1.6 0.00 0.00 0.00 41 1013.7
20260505205213 25 64 1.6 4.8 0.00 0.00 0.00 39 1013.8
20260505204708 25 91 0.0 9.7 0.00 0.00 0.00 40 1014.0
20260505204206 25 133 1.6 3.2 0.00 0.00 0.00 39 1013.9
20260505203658 25 97 1.6 3.2 0.00 0.00 0.00 40 1014.2
20260505203155 26 77 0.0 3.2 0.00 0.00 0.00 40 1014.0
20260505202650 26 323 3.2 11.3 0.00 0.00 0.00 39 1014.1
20260505202147 26 94 3.2 3.2 0.00 0.00 0.00 38 1014.4
20260505201643 26 336 0.0 1.6 0.00 0.00 0.00 41 1014.3
20260505201141 26 2 1.6 4.8 0.00 0.00 0.00 41 1014.4
20260505200639 25 123 3.2 3.2 0.00 0.00 0.00 40 1014.5
20260505200136 26 123 0.0 4.8 0.00 0.00 0.00 40 1014.4
20260505195632 25 190 4.8 4.8 0.00 0.00 0.00 38 1014.4
20260505195129 25 128 3.2 3.2 0.00 0.00 0.00 39 1014.5
20260505194626 26 64 1.6 9.7 0.00 0.00 0.00 36 1014.6
20260505194122 25 109 0.0 1.6 0.00 0.00 0.00 43 1014.5
20260505193619 25 123 1.6 6.4 0.00 0.00 0.00 40 1014.5
20260505193116 25 110 1.6 4.8 0.00 0.00 0.00 39 1014.9
20260505192615 25 135 3.2 9.7 0.00 0.00 0.00 39 1014.9
20260505192112 25 82 0.0 3.2 0.00 0.00 0.00 41 1015.1
20260505191610 25 42 3.2 4.8 0.00 0.00 0.00 40 1015.2
20260505191108 25 61 0.0 1.6 0.00 0.00 0.00 45 1015.3
20260505190603 25 129 3.2 4.8 0.00 0.00 0.00 40 1015.4
20260505190058 26 166 0.0 3.2 0.00 0.00 0.00 41 1015.5
20260505185555 26 122 3.2 3.2 0.00 0.00 0.00 43 1015.5
20260505185052 25 225 3.2 3.2 0.00 0.00 0.00 40 1015.6
20260505184548 25 0 1.6 3.2 0.00 0.00 0.00 41 1015.6
20260505184045 25 118 1.6 3.2 0.00 0.00 0.00 42 1015.3
20260505183542 25 113 0.0 4.8 0.00 0.00 0.00 41 1015.6
20260505183040 25 85 0.0 3.2 0.00 0.00 0.00 44 1015.5
20260505182536 25 123 4.8 6.4 0.00 0.00 0.00 41 1015.5
20260505182032 25 86 1.6 4.8 0.00 0.00 0.00 40 1015.6
20260505181529 26 122 1.6 3.2 0.00 0.00 0.00 42 1015.6
20260505181027 25 113 3.2 4.8 0.00 0.00 0.00 41 1015.7
20260505180522 25 132 1.6 4.8 0.00 0.00 0.00 42 1015.6
20260505180021 25 334 0.0 4.8 0.00 0.00 0.00 44 1015.4
20260505175515 25 73 3.2 6.4 0.00 0.00 0.00 45 1015.5
20260505175012 25 59 1.6 3.2 0.00 0.00 0.00 48 1015.8
20260505174509 24 114 3.2 6.4 0.00 0.00 0.00 48 1016.0
20260505174005 25 81 1.6 9.7 0.00 0.00 0.00 48 1016.2
20260505173502 24 336 0.0 4.8 0.00 0.00 0.00 50 1016.3
20260505172958 24 101 1.6 3.2 0.00 0.00 0.00 50 1016.3
20260505172457 24 101 1.6 6.4 0.00 0.00 0.00 50 1016.3
20260505171956 23 62 0.0 0.0 0.00 0.00 0.00 52 1016.7
20260505171448 24 350 0.0 3.2 0.00 0.00 0.00 52 1016.5
20260505170944 23 3 3.2 9.7 0.00 0.00 0.00 52 1016.6
20260505170441 23 126 1.6 9.7 0.00 0.00 0.00 50 1016.5
20260505165936 23 102 1.6 4.8 0.00 0.00 0.00 50 1016.7
20260505165433 23 342 0.0 4.8 0.00 0.00 0.00 50 1016.7
20260505164928 23 19 1.6 3.2 0.00 0.00 0.00 48 1016.8
20260505164425 23 103 4.8 17.7 0.00 0.00 0.00 50 1016.5
20260505163923 23 79 1.6 4.8 0.00 0.00 0.00 47 1016.6
20260505163422 23 56 3.2 4.8 0.00 0.00 0.00 51 1016.8
20260505162920 23 144 1.6 4.8 0.00 0.00 0.00 49 1016.7
20260505162416 23 351 0.0 1.6 0.00 0.00 0.00 52 1016.5
20260505161913 23 116 1.6 3.2 0.00 0.00 0.00 51 1016.3
20260505161409 23 355 0.0 3.2 0.00 0.00 0.00 57 1016.0
20260505160907 23 45 0.0 1.6 0.00 0.00 0.00 52 1016.2
20260505160405 22 153 4.8 6.4 0.00 0.00 0.00 53 1016.3
20260505153344 21 147 4.8 4.8 0.00 0.00 0.00 60 1016.8
20260505152840 21 23 0.0 3.2 0.00 0.00 0.00 63 1017.1
20260505152338 21 2 0.0 0.0 0.00 0.00 0.00 63 1017.0
20260505151832 21 3 0.0 1.6 0.00 0.00 0.00 65 1016.8
20260505151328 21 355 0.0 0.0 0.00 0.00 0.00 61 1016.8
20260505150825 21 354 0.0 0.0 0.00 0.00 0.00 63 1016.9
20260505150322 21 352 0.0 1.6 0.00 0.00 0.00 61 1016.6
20260505140247 17 227 0.0 1.6 0.00 0.00 0.00 71 1017.1
20260505130211 16 140 1.6 1.6 0.00 0.00 0.00 75 1016.5
20260505124701 16 138 1.6 3.2 0.00 0.00 0.00 73 1016.1
20260505124157 15 135 0.0 0.0 0.00 0.00 0.00 76 1015.8
20260505123654 15 135 0.0 0.0 0.00 0.00 0.00 76 1016.1
20260505123150 15 135 0.0 0.0 0.00 0.00 0.00 77 1016.0
20260505122647 14 135 0.0 0.0 0.00 0.00 0.00 81 1016.0
20260505122144 15 135 0.0 0.0 0.00 0.00 0.00 81 1016.1
20260505121640 15 135 0.0 0.0 0.00 0.00 0.00 81 1015.9
20260505121137 15 135 0.0 0.0 0.00 0.00 0.00 79 1015.8
20260505120633 16 135 0.0 0.0 0.00 0.00 0.00 78 1015.6
20260505120130 15 135 0.0 0.0 0.00 0.00 0.00 77 1015.7
20260505115624 15 135 0.0 0.0 0.00 0.00 0.00 74 1015.8
20260505115121 16 135 0.0 0.0 0.00 0.00 0.00 75 1015.6
20260505114618 15 135 0.0 0.0 0.00 0.00 0.00 82 1015.6
20260505114114 13 135 0.0 0.0 0.00 0.00 0.00 88 1015.6
20260505113611 11 135 0.0 0.0 0.00 0.00 0.00 92 1015.7
20260505113108 11 135 0.0 0.0 0.00 0.00 0.00 92 1015.5
20260505112604 10 135 0.0 0.0 0.00 0.00 0.00 93 1015.3
20260505112103 10 135 0.0 0.0 0.00 0.00 0.00 93 1015.2
20260505111601 10 135 0.0 0.0 0.00 0.00 0.00 92 1015.3
20260505111057 10 135 0.0 0.0 0.00 0.00 0.00 92 1015.1
20260505110554 9 135 0.0 0.0 0.00 0.00 0.00 93 1015.1
20260505102027 9 135 0.0 0.0 0.00 0.00 0.00 92 1015.0
20260505101525 9 135 0.0 0.0 0.00 0.00 0.00 92 1014.9
20260505101021 9 135 0.0 0.0 0.00 0.00 0.00 92 1015.0
20260505100519 9 135 0.0 0.0 0.00 0.00 0.00 92 1014.9
20260505100015 9 135 0.0 0.0 0.00 0.00 0.00 91 1014.8
20260505095511 9 135 0.0 0.0 0.00 0.00 0.00 91 1014.8
20260505095008 9 135 0.0 0.0 0.00 0.00 0.00 92 1015.1
20260505094504 9 135 0.0 0.0 0.00 0.00 0.00 91 1015.0
20260505094001 9 135 0.0 0.0 0.00 0.00 0.00 91 1015.3
20260505093457 10 135 0.0 0.0 0.00 0.00 0.00 91 1015.3
20260505092955 10 135 0.0 0.0 0.00 0.00 0.00 91 1015.3
20260505092452 10 135 0.0 0.0 0.00 0.00 0.00 90 1015.0
20260505091950 10 135 0.0 0.0 0.00 0.00 0.00 90 1015.0
20260505091447 10 135 0.0 0.0 0.00 0.00 0.00 90 1014.7
20260505090945 10 136 0.0 0.0 0.00 0.00 0.00 90 1015.0
20260505090443 10 136 0.0 0.0 0.00 0.00 0.00 90 1015.1
20260505085940 10 136 0.0 0.0 0.00 0.00 0.00 90 1015.1
20260505085438 10 136 0.0 0.0 0.00 0.00 0.00 90 1015.0
20260505084936 10 136 0.0 0.0 0.00 0.00 0.00 89 1015.2
20260505084434 10 136 0.0 0.0 0.00 0.00 0.00 88 1015.2
20260505083931 10 146 0.0 0.0 0.00 0.00 0.00 87 1015.4
20260505083428 10 146 0.0 0.0 0.00 0.00 0.00 87 1015.4
20260505082924 10 189 1.6 3.2 0.00 0.00 0.00 86 1015.3
20260505082420 10 175 0.0 0.0 0.00 0.00 0.00 87 1015.3
20260505081918 10 117 0.0 0.0 0.00 0.00 0.00 86 1015.4
20260505081415 10 117 0.0 0.0 0.00 0.00 0.00 86 1015.2
20260505080911 11 108 0.0 0.0 0.00 0.00 0.00 85 1015.1
20260505080407 11 108 0.0 0.0 0.00 0.00 0.00 84 1015.3
20260505075903 11 108 0.0 0.0 0.00 0.00 0.00 84 1015.2
20260505075359 11 108 0.0 0.0 0.00 0.00 0.00 83 1015.1
20260505074857 11 108 0.0 0.0 0.00 0.00 0.00 83 1015.1
20260505074354 11 108 0.0 0.0 0.00 0.00 0.00 82 1015.1
20260505073851 11 108 0.0 0.0 0.00 0.00 0.00 82 1015.3
20260505073344 11 108 0.0 1.6 0.00 0.00 0.00 81 1015.1
20260505072840 12 108 0.0 0.0 0.00 0.00 0.00 80 1015.0
20260505072336 12 108 0.0 0.0 0.00 0.00 0.00 79 1015.2
20260505071832 12 108 0.0 0.0 0.00 0.00 0.00 78 1015.3
20260505071329 12 108 1.6 1.6 0.00 0.00 0.00 77 1015.2
20260505070827 12 139 0.0 0.0 0.00 0.00 0.00 76 1015.1
20260505070323 13 139 0.0 1.6 0.00 0.00 0.00 77 1015.2
20260505065818 13 139 0.0 0.0 0.00 0.00 0.00 74 1015.3
20260505065315 13 139 0.0 0.0 0.00 0.00 0.00 73 1015.2
20260505064813 13 139 0.0 0.0 0.00 0.00 0.00 70 1015.1
20260505064309 13 139 0.0 0.0 0.00 0.00 0.00 70 1015.3
20260505063808 13 139 0.0 0.0 0.00 0.00 0.00 70 1015.4
20260505063303 13 139 0.0 0.0 0.00 0.00 0.00 69 1015.3
20260505062800 14 139 0.0 0.0 0.00 0.00 0.00 69 1015.3
20260505062258 14 139 0.0 0.0 0.00 0.00 0.00 69 1015.3
20260505061754 14 139 0.0 0.0 0.00 0.00 0.00 68 1015.3
20260505061252 14 139 0.0 0.0 0.00 0.00 0.00 67 1015.4
20260505060749 14 139 0.0 0.0 0.00 0.00 0.00 66 1015.2
20260505060246 14 139 0.0 0.0 0.00 0.00 0.00 67 1015.2
20260505041336 15 139 0.0 0.0 0.00 0.00 0.00 65 1015.8
20260505040833 15 139 0.0 0.0 0.00 0.00 0.00 67 1015.6
20260505040331 16 139 0.0 0.0 0.00 0.00 0.00 65 1015.6
20260505035828 16 139 0.0 0.0 0.00 0.00 0.00 63 1015.4
20260505035323 16 139 0.0 0.0 0.00 0.00 0.00 63 1015.7
20260505034821 17 139 0.0 1.6 0.00 0.00 0.00 60 1015.6
20260505034317 17 132 0.0 0.0 0.00 0.00 0.00 59 1015.8
20260505033815 16 132 0.0 0.0 0.00 0.00 0.00 61 1015.7
20260505033311 16 132 0.0 0.0 0.00 0.00 0.00 60 1015.9
20260505032810 16 132 0.0 0.0 0.00 0.00 0.00 62 1015.7
20260505032305 16 132 0.0 0.0 0.00 0.00 0.00 63 1015.8
20260505031803 16 132 0.0 0.0 0.00 0.00 0.00 63 1015.7
20260505031259 16 132 0.0 0.0 0.00 0.00 0.00 62 1015.5
20260505030757 16 132 0.0 0.0 0.00 0.00 0.00 61 1015.7
20260505030253 17 132 0.0 0.0 0.00 0.00 0.00 61 1015.5
20260505025748 17 132 0.0 0.0 0.00 0.00 0.00 61 1015.6
20260505025246 16 132 0.0 0.0 0.00 0.00 0.00 60 1015.6
20260505024744 16 132 0.0 0.0 0.00 0.00 0.00 61 1015.6
20260505024241 16 132 0.0 0.0 0.00 0.00 0.00 61 1015.4
20260505023738 16 132 0.0 0.0 0.00 0.00 0.00 60 1015.5
20260505023236 16 132 0.0 0.0 0.00 0.00 0.00 60 1015.5
20260505022733 17 132 0.0 0.0 0.00 0.00 0.00 59 1015.5
20260505022230 16 151 0.0 0.0 0.00 0.00 0.00 60 1015.5
20260505021726 17 132 0.0 0.0 0.00 0.00 0.00 61 1015.4
20260505021223 17 151 0.0 0.0 0.00 0.00 0.00 60 1015.4
20260505020719 17 132 0.0 0.0 0.00 0.00 0.00 60 1015.3
20260505020214 17 132 0.0 0.0 0.00 0.00 0.00 62 1015.4
20260505015712 17 132 0.0 0.0 0.00 0.00 0.00 61 1015.2
20260505015209 17 132 0.0 0.0 0.00 0.00 0.00 61 1015.3
20260505014706 17 132 0.0 0.0 0.00 0.00 0.00 61 1015.1
20260505014203 17 132 0.0 0.0 0.00 0.00 0.00 61 1015.1
20260505013659 17 132 0.0 0.0 0.00 0.00 0.00 61 1015.2
20260505013157 17 132 0.0 0.0 0.00 0.00 0.00 61 1015.1
20260505012655 17 150 0.0 0.0 0.00 0.00 0.00 62 1015.1
20260505012147 17 150 0.0 0.0 0.00 0.00 0.00 62 1015.3
20260505011642 17 132 0.0 0.0 0.00 0.00 0.00 62 1014.9
20260505011140 18 132 0.0 0.0 0.00 0.00 0.00 62 1014.8
20260505010640 18 132 0.0 0.0 0.00 0.00 0.00 62 1014.9
20260505010137 18 132 0.0 0.0 0.00 0.00 0.00 60 1015.0
20260505005632 18 132 0.0 0.0 0.00 0.00 0.00 59 1014.9
20260505005130 18 132 0.0 0.0 0.00 0.00 0.00 59 1015.1
20260505004627 19 132 0.0 0.0 0.00 0.00 0.00 58 1015.0
20260505004123 20 132 0.0 0.0 0.00 0.00 0.00 58 1015.1
20260505003621 20 132 0.0 0.0 0.00 0.00 0.00 57 1014.9
20260505003118 20 132 0.0 0.0 0.00 0.00 0.00 54 1014.9
20260505002614 21 132 0.0 0.0 0.00 0.00 0.00 52 1015.0
20260505002113 21 132 0.0 0.0 0.00 0.00 0.00 50 1014.8
20260505001609 22 132 0.0 0.0 0.00 0.00 0.00 49 1014.8
20260505001107 22 132 0.0 0.0 0.00 0.00 0.00 47 1014.9
20260505000604 22 132 0.0 0.0 0.00 0.00 0.00 46 1014.8